Back to catalog

STARLINK-36355

AliveCommunicationsSSO
NORAD 68298·PAYLOAD·🇺🇸 United States

Launched Mar 20, 2026 from Vandenberg Space Force Base

Loading…

Next Passes (next 24 hours)

TLE

FreshSource: CelesTrak SupGP

Epoch: Sep 14, 2026, 23:07 UTC

1 68298C 26057E   26257.96368056 -.00036926  00000+0 -11458-2 0  2573
2 68298  97.2856  23.3946 0000927  96.2642 211.6373 15.33470750    15

Track STARLINK-36355 in real time with AllMySat

Download on the App Store